Weather History for Falfurrias, TX

Change the Weather History Date:

Tuesday, February 19, 2013

  Actual Average (KNQI) Record (KNQI)
Temperature  
Mean Temperature 66 °F -  
Max Temperature 73 °F 71 °F 86 °F (2014)
Min Temperature 60 °F 51 °F 59 °F (2014)
Cooling Degree Days 2    
Growing Degree Days 16 (Base 50)    
Moisture  
Dew Point 56 °F    
Average Humidity 67    
Maximum Humidity 96    
Minimum Humidity 48    
Precipitation  
Precipitation 0.00 in - - ()
Sea Level Pressure  
Sea Level Pressure 30.09 in    
Wind  
Wind Speed 9 mph (ENE)    
Max Wind Speed 20 mph    
Max Gust Speed 26 mph    
Visibility 10 miles    
Events      
Averages and records for this station are not official NWS values.
T = Trace of Precipitation, MM = Missing Value Source: NWS Daily Summary

Daily Weather History Graph

Daily Weather History Graph

Search for Another Location

Airport:

Trip Planner

Search our weather history database for the weather conditions in past years. The results will help you decide how hot, cold, wet, or windy it might be!

Date:

Astronomy

Feb. 19, 2013 Rise Set
Actual Time 7:05 AM CST 6:27 PM CST
Civil Twilight 6:41 AM CST 6:50 PM CST
Nautical Twilight 6:14 AM CST 7:18 PM CST
Astronomical Twilight 5:47 AM CST 7:45 PM CST
Moon 1:15 PM CST (2/19) 2:22 AM CST (2/19)
Length of Visible Light 12h 08m
Length of Day
11h 21m
Waxing Gibbous, 67% of the Moon is Illuminated
Feb 19
Waxing Gibbous
Feb 25
Full
Mar 4
Last Quarter
Mar 11
New
Mar 19
First Quarter

Hourly Weather History & Observations

Time (CST) Temp. Dew Point Humidity Pressure Visibility Wind Dir Wind Speed Gust Speed Precip Events Conditions
12:15 AM 67.8 °F 63.5 °F 86% 29.99 in 10.0 mi SSE 4.6 mph - N/A   Clear
12:35 AM 67.1 °F 63.1 °F 87% 29.99 in 10.0 mi SSE 4.6 mph - N/A   Clear
12:55 AM 66.6 °F 63.1 °F 89% 30.00 in 10.0 mi SSE 3.5 mph - N/A   Clear
1:15 AM 65.7 °F 62.4 °F 89% 30.00 in 10.0 mi SSE 4.6 mph - N/A   Clear
1:35 AM 64.4 °F 62.2 °F 93% 30.00 in 7.0 mi South 4.6 mph - N/A   Clear
1:55 AM 64.6 °F 62.1 °F 92% 30.00 in 10.0 mi SSE 3.5 mph - N/A   Clear
2:15 AM 64.4 °F 61.9 °F 92% 30.01 in 7.0 mi Calm Calm - N/A   Clear
2:35 AM 63.7 °F 61.7 °F 93% 30.01 in 7.0 mi Calm Calm - N/A   Clear
2:55 AM 63.5 °F 61.5 °F 93% 30.01 in 7.0 mi Calm Calm - N/A   Clear
3:15 AM 62.2 °F 60.6 °F 94% 30.01 in 4.0 mi Calm Calm - N/A   Clear
3:35 AM 60.4 °F 58.8 °F 94% 30.01 in 5.0 mi Calm Calm - N/A   Clear
3:55 AM 61.0 °F 59.5 °F 95% 30.02 in 4.0 mi Calm Calm - N/A   Clear
4:35 AM 63.1 °F 62.1 °F 96% 30.05 in 7.0 mi NNE 8.1 mph - N/A   Mostly Cloudy
4:55 AM 65.3 °F 63.0 °F 92% 30.06 in 7.0 mi NNE 5.8 mph - N/A   Overcast
5:15 AM 66.2 °F 63.3 °F 90% 30.06 in 10.0 mi NNE 15.0 mph 20.7 mph N/A   Overcast
5:35 AM 64.9 °F 50.0 °F 58% 30.08 in 10.0 mi NE 13.8 mph 21.9 mph N/A   Overcast
5:55 AM 64.9 °F 48.2 °F 55% 30.09 in 10.0 mi NE 13.8 mph 19.6 mph N/A   Overcast
6:35 AM 64.6 °F 46.8 °F 52% 30.10 in 10.0 mi NE 12.7 mph - N/A   Overcast
6:55 AM 64.6 °F 46.4 °F 52% 30.11 in 10.0 mi NE 10.4 mph - N/A   Overcast
7:15 AM 64.8 °F 46.6 °F 52% 30.11 in 10.0 mi NE 10.4 mph - N/A   Overcast
7:35 AM 64.9 °F 46.8 °F 52% 30.13 in 10.0 mi ENE 13.8 mph 19.6 mph N/A   Overcast
7:55 AM 64.9 °F 47.1 °F 52% 30.13 in 10.0 mi NE 12.7 mph 18.4 mph N/A   Overcast
8:15 AM 65.3 °F 47.3 °F 52% 30.15 in 10.0 mi NE 11.5 mph 19.6 mph N/A   Overcast
8:35 AM 66.2 °F 47.1 °F 50% 30.16 in 10.0 mi NE 13.8 mph 20.7 mph N/A   Overcast
8:55 AM 66.4 °F 47.3 °F 50% 30.16 in 10.0 mi ENE 13.8 mph 24.2 mph N/A   Overcast
9:15 AM 66.6 °F 47.5 °F 50% 30.16 in 10.0 mi ENE 15.0 mph 19.6 mph N/A   Overcast
9:35 AM 67.3 °F 48.0 °F 50% 30.17 in 10.0 mi ENE 15.0 mph 19.6 mph N/A   Overcast
9:55 AM 68.4 °F 48.6 °F 49% 30.18 in 10.0 mi ENE 17.3 mph 21.9 mph N/A   Mostly Cloudy
10:15 AM 68.5 °F 49.3 °F 50% 30.18 in 10.0 mi ENE 16.1 mph 20.7 mph N/A   Overcast
10:35 AM 68.9 °F 48.6 °F 48% 30.19 in 10.0 mi ENE 15.0 mph 21.9 mph N/A   Overcast
10:55 AM 69.1 °F 49.3 °F 49% 30.19 in 10.0 mi ENE 18.4 mph 23.0 mph N/A   Overcast
11:15 AM 69.3 °F 49.1 °F 49% 30.19 in 10.0 mi ENE 16.1 mph - N/A   Overcast
11:35 AM 68.9 °F 49.8 °F 51% 30.19 in 10.0 mi ENE 15.0 mph 23.0 mph N/A   Overcast
11:55 AM 69.3 °F 50.4 °F 51% 30.19 in 10.0 mi ENE 16.1 mph - N/A   Overcast
12:15 PM 69.8 °F 50.9 °F 51% 30.18 in 10.0 mi East 16.1 mph 21.9 mph N/A   Overcast
12:35 PM 71.6 °F 52.2 °F 50% 30.17 in 10.0 mi ENE 18.4 mph 21.9 mph N/A   Overcast
1:15 PM 71.8 °F 54.0 °F 53% 30.15 in 10.0 mi East 12.7 mph 21.9 mph N/A   Overcast
1:35 PM 72.5 °F 53.1 °F 50% 30.14 in 10.0 mi ENE 17.3 mph 23.0 mph N/A   Overcast
1:55 PM 73.2 °F 53.2 °F 49% 30.13 in 10.0 mi ENE 16.1 mph 21.9 mph N/A   Overcast
2:15 PM 72.5 °F 53.6 °F 51% 30.12 in 10.0 mi East 13.8 mph - N/A   Overcast
2:35 PM 73.0 °F 54.5 °F 52% 30.11 in 10.0 mi ENE 15.0 mph - N/A   Overcast
2:55 PM 72.5 °F 54.7 °F 53% 30.11 in 10.0 mi East 13.8 mph - N/A   Overcast
3:15 PM 73.6 °F 55.2 °F 53% 30.09 in 10.0 mi ENE 13.8 mph 19.6 mph N/A   Overcast
3:35 PM 73.4 °F 55.8 °F 54% 30.09 in 10.0 mi ENE 15.0 mph 19.6 mph N/A   Scattered Clouds
3:55 PM 72.5 °F 56.5 °F 57% 30.07 in 10.0 mi East 16.1 mph 20.7 mph N/A   Mostly Cloudy
4:15 PM 72.1 °F 57.2 °F 59% 30.07 in 10.0 mi East 15.0 mph 23.0 mph N/A   Overcast
4:35 PM 71.8 °F 57.6 °F 61% 30.07 in 10.0 mi East 13.8 mph 21.9 mph N/A   Overcast
5:15 PM 70.0 °F 57.7 °F 65% 30.05 in 10.0 mi East 19.6 mph 25.3 mph N/A   Overcast
5:35 PM 69.6 °F 58.3 °F 67% 30.06 in 10.0 mi East 18.4 mph 26.5 mph N/A   Overcast
6:35 PM 68.2 °F 59.2 °F 73% 30.06 in 10.0 mi East 11.5 mph - N/A   Mostly Cloudy
6:55 PM 68.2 °F 59.2 °F 73% 30.07 in 10.0 mi ENE 11.5 mph - N/A   Overcast
7:15 PM 68.2 °F 59.2 °F 73% 30.06 in 10.0 mi East 10.4 mph - N/A   Overcast
7:35 PM 68.2 °F 59.4 °F 73% 30.07 in 10.0 mi ENE 9.2 mph - N/A   Overcast
8:15 PM 68.0 °F 59.4 °F 74% 30.07 in 10.0 mi ENE 8.1 mph - N/A   Overcast
8:35 PM 68.0 °F 59.9 °F 75% 30.06 in 10.0 mi ENE 10.4 mph - N/A   Overcast
8:55 PM 67.6 °F 59.9 °F 76% 30.07 in 10.0 mi East 10.4 mph - N/A   Overcast
9:15 PM 68.0 °F 60.1 °F 76% 30.06 in 10.0 mi East 9.2 mph - N/A   Overcast
9:35 PM 68.2 °F 59.9 °F 75% 30.07 in 10.0 mi East 10.4 mph - N/A   Overcast
9:55 PM 68.2 °F 59.5 °F 74% 30.06 in 10.0 mi East 10.4 mph 17.3 mph N/A   Mostly Cloudy
10:15 PM 68.0 °F 59.4 °F 74% 30.05 in 10.0 mi East 12.7 mph 16.1 mph N/A   Clear
10:35 PM 67.8 °F 59.4 °F 74% 30.04 in 10.0 mi ESE 9.2 mph 16.1 mph N/A   Clear
10:55 PM 67.6 °F 59.5 °F 75% 30.04 in 10.0 mi ESE 10.4 mph - N/A   Scattered Clouds
11:15 PM 67.6 °F 59.9 °F 76% 30.03 in 10.0 mi ESE 10.4 mph - N/A   Mostly Cloudy
11:35 PM 68.0 °F 60.3 °F 76% 30.03 in 10.0 mi ESE 10.4 mph 18.4 mph N/A   Overcast
11:55 PM 68.2 °F 60.8 °F 77% 30.03 in 10.0 mi ESE 10.4 mph - N/A   Overcast